Time,TemperatureF,DewpointF,PressureIn,WindDirection,WindDirectionDegrees,WindSpeedMPH,WindSpeedGustMPH,Humidity,HourlyPrecipIn,Conditions,Clouds,dailyrainin,SoftwareType,DateUTC
2013-01-19 00:04:00,31.7,23.4,30.63,SW,222,1.0,2.0,71,0.00,,,0.00,Wunderground v.1.15,2013-01-19 05:04:00,
2013-01-19 00:10:00,31.7,23.7,30.62,SW,232,1.0,1.0,72,0.00,,,0.00,Wunderground v.1.15,2013-01-19 05:10:00,
2013-01-19 00:12:00,31.6,23.3,30.62,SSW,206,1.0,1.0,71,0.00,,,0.00,Wunderground v.1.15,2013-01-19 05:12:00,
2013-01-19 00:18:00,31.4,24.1,30.62,WSW,238,1.0,2.0,74,0.00,,,0.00,Wunderground v.1.15,2013-01-19 05:18:00,
2013-01-19 00:24:00,31.2,23.5,30.62,SSW,212,2.0,3.0,73,0.00,,,0.00,Wunderground v.1.15,2013-01-19 05:24:00,
2013-01-19 00:30:00,31.3,24.0,30.62,SW,232,2.0,2.0,74,0.00,,,0.00,Wunderground v.1.15,2013-01-19 05:30:00,
2013-01-19 00:36:00,31.5,24.5,30.62,SW,218,2.0,2.0,75,0.00,,,0.00,Wunderground v.1.15,2013-01-19 05:36:00,
2013-01-19 00:42:00,31.5,23.8,30.62,SSW,205,2.0,2.0,73,0.00,,,0.00,Wunderground v.1.15,2013-01-19 05:42:00,
2013-01-19 00:48:00,31.7,24.0,30.62,SSW,204,2.0,3.0,73,0.00,,,0.00,Wunderground v.1.15,2013-01-19 05:48:00,
2013-01-19 00:54:00,31.9,23.9,30.62,SSW,210,2.0,2.0,72,0.00,,,0.00,Wunderground v.1.15,2013-01-19 05:54:00,
2013-01-19 01:00:00,31.8,24.1,30.62,SW,226,2.0,2.0,73,0.00,,,0.00,Wunderground v.1.15,2013-01-19 06:00:00,
2013-01-19 01:06:00,31.3,24.0,30.61,SW,225,1.0,2.0,74,0.00,,,0.00,Wunderground v.1.15,2013-01-19 06:06:00,
2013-01-19 01:12:00,30.8,23.8,30.61,SW,216,1.0,2.0,75,0.00,,,0.00,Wunderground v.1.15,2013-01-19 06:12:00,
2013-01-19 01:18:00,30.7,23.7,30.61,SW,221,1.0,2.0,75,0.00,,,0.00,Wunderground v.1.15,2013-01-19 06:18:00,
2013-01-19 01:24:00,30.5,23.2,30.60,SSW,208,1.0,1.0,74,0.00,,,0.00,Wunderground v.1.15,2013-01-19 06:24:00,
2013-01-19 01:30:00,30.4,23.1,30.60,SW,226,1.0,1.0,74,0.00,,,0.00,Wunderground v.1.15,2013-01-19 06:30:00,
2013-01-19 01:36:00,30.4,23.4,30.61,SW,221,1.0,2.0,75,0.00,,,0.00,Wunderground v.1.15,2013-01-19 06:36:00,
2013-01-19 01:42:00,30.7,22.4,30.60,WSW,240,2.0,2.0,71,0.00,,,0.00,Wunderground v.1.15,2013-01-19 06:42:00,
2013-01-19 01:48:00,30.8,23.2,30.60,SSW,212,1.0,2.0,73,0.00,,,0.00,Wunderground v.1.15,2013-01-19 06:48:00,
2013-01-19 01:54:00,30.9,22.6,30.60,SSW,194,1.0,2.0,71,0.00,,,0.00,Wunderground v.1.15,2013-01-19 06:54:00,
2013-01-19 02:00:00,30.6,22.6,30.60,SW,222,1.0,1.0,72,0.00,,,0.00,Wunderground v.1.15,2013-01-19 07:00:00,
2013-01-19 02:06:00,30.6,23.3,30.60,SW,224,1.0,1.0,74,0.00,,,0.00,Wunderground v.1.15,2013-01-19 07:06:00,
2013-01-19 02:12:00,30.2,22.9,30.60,South,181,1.0,3.0,74,0.00,,,0.00,Wunderground v.1.15,2013-01-19 07:12:00,
2013-01-19 02:18:00,29.9,23.3,30.60,SW,224,1.0,3.0,76,0.00,,,0.00,Wunderground v.1.15,2013-01-19 07:18:00,
2013-01-19 02:24:00,30.0,22.7,30.60,NNE,20,1.0,4.0,74,0.00,,,0.00,Wunderground v.1.15,2013-01-19 07:24:00,
2013-01-19 02:30:00,29.7,22.1,30.60,SSW,195,0.0,0.0,73,0.00,,,0.00,Wunderground v.1.15,2013-01-19 07:30:00,
2013-01-19 02:36:00,29.6,22.6,30.60,SW,214,0.0,0.0,75,0.00,,,0.00,Wunderground v.1.15,2013-01-19 07:36:00,
2013-01-19 02:42:00,29.7,23.4,30.60,SW,233,0.0,0.0,77,0.00,,,0.00,Wunderground v.1.15,2013-01-19 07:42:00,
2013-01-19 02:48:00,29.7,23.1,30.60,SW,214,0.0,0.0,76,0.00,,,0.00,Wunderground v.1.15,2013-01-19 07:48:00,
2013-01-19 02:54:00,29.9,22.9,30.59,SW,224,0.0,0.0,75,0.00,,,0.00,Wunderground v.1.15,2013-01-19 07:54:00,
2013-01-19 03:00:00,30.2,22.9,30.59,West,273,1.0,1.0,74,0.00,,,0.00,Wunderground v.1.15,2013-01-19 08:00:00,
2013-01-19 03:06:00,30.3,23.0,30.59,SW,228,1.0,1.0,74,0.00,,,0.00,Wunderground v.1.15,2013-01-19 08:06:00,
2013-01-19 03:12:00,30.5,21.5,30.59,South,174,1.0,4.0,69,0.00,,,0.00,Wunderground v.1.15,2013-01-19 08:12:00,
2013-01-19 03:18:00,31.0,21.3,30.59,ESE,116,1.0,4.0,67,0.00,,,0.00,Wunderground v.1.15,2013-01-19 08:18:00,
2013-01-19 03:24:00,31.3,21.3,30.59,SW,219,1.0,1.0,66,0.00,,,0.00,Wunderground v.1.15,2013-01-19 08:24:00,
2013-01-19 03:30:00,31.4,21.3,30.59,SW,222,1.0,2.0,66,0.00,,,0.00,Wunderground v.1.15,2013-01-19 08:30:00,
2013-01-19 03:36:00,31.6,20.4,30.59,SW,232,2.0,3.0,63,0.00,,,0.00,Wunderground v.1.15,2013-01-19 08:36:00,
2013-01-19 03:42:00,31.8,21.0,30.59,WSW,242,2.0,2.0,64,0.00,,,0.00,Wunderground v.1.15,2013-01-19 08:42:00,
2013-01-19 03:48:00,31.7,20.5,30.59,SSW,208,1.0,6.0,63,0.00,,,0.00,Wunderground v.1.15,2013-01-19 08:48:00,
2013-01-19 03:54:00,31.8,20.6,30.59,SW,221,2.0,5.0,63,0.00,,,0.00,Wunderground v.1.15,2013-01-19 08:54:00,
2013-01-19 04:00:00,31.4,21.3,30.59,SSW,212,1.0,2.0,66,0.00,,,0.00,Wunderground v.1.15,2013-01-19 09:00:00,
2013-01-19 04:06:00,31.1,21.4,30.58,SW,232,1.0,2.0,67,0.00,,,0.00,Wunderground v.1.15,2013-01-19 09:06:00,
2013-01-19 04:12:00,30.9,21.6,30.58,SSW,201,2.0,2.0,68,0.00,,,0.00,Wunderground v.1.15,2013-01-19 09:12:00,
2013-01-19 04:18:00,30.9,20.9,30.58,West,278,2.0,2.0,66,0.00,,,0.00,Wunderground v.1.15,2013-01-19 09:18:00,
2013-01-19 04:24:00,31.3,21.3,30.58,SW,231,2.0,3.0,66,0.00,,,0.00,Wunderground v.1.15,2013-01-19 09:24:00,
2013-01-19 04:30:00,31.2,20.4,30.57,SW,226,1.0,1.0,64,0.00,,,0.00,Wunderground v.1.15,2013-01-19 09:30:00,
2013-01-19 04:36:00,31.4,20.2,30.57,WSW,249,1.0,3.0,63,0.00,,,0.00,Wunderground v.1.15,2013-01-19 09:36:00,
2013-01-19 04:42:00,31.4,19.9,30.57,SW,226,2.0,2.0,62,0.00,,,0.00,Wunderground v.1.15,2013-01-19 09:42:00,
2013-01-19 04:48:00,31.5,20.0,30.57,WSW,245,2.0,2.0,62,0.00,,,0.00,Wunderground v.1.15,2013-01-19 09:48:00,
2013-01-19 04:54:00,31.6,19.3,30.57,SW,217,2.0,2.0,60,0.00,,,0.00,Wunderground v.1.15,2013-01-19 09:54:00,
2013-01-19 05:00:00,31.6,18.9,30.57,WSW,246,1.0,1.0,59,0.00,,,0.00,Wunderground v.1.15,2013-01-19 10:00:00,
2013-01-19 05:06:00,31.7,18.2,30.57,SSW,209,1.0,1.0,57,0.00,,,0.00,Wunderground v.1.15,2013-01-19 10:06:00,
2013-01-19 05:12:00,31.4,19.1,30.57,ENE,70,0.0,2.0,60,0.00,,,0.00,Wunderground v.1.15,2013-01-19 10:12:00,
2013-01-19 05:18:00,31.0,19.1,30.57,NNW,335,0.0,2.0,61,0.00,,,0.00,Wunderground v.1.15,2013-01-19 10:18:00,
2013-01-19 05:24:00,30.8,19.7,30.57,NNE,23,0.0,0.0,63,0.00,,,0.00,Wunderground v.1.15,2013-01-19 10:24:00,
2013-01-19 05:32:00,30.9,18.2,30.57,WSW,239,0.0,1.0,59,0.00,,,0.00,Wunderground v.1.15,2013-01-19 10:32:00,
2013-01-19 05:38:00,31.1,17.6,30.57,WSW,246,1.0,1.0,57,0.00,,,0.00,Wunderground v.1.15,2013-01-19 10:38:00,
2013-01-19 05:44:00,31.2,17.3,30.57,ENE,77,1.0,1.0,56,0.00,,,0.00,Wunderground v.1.15,2013-01-19 10:44:00,
2013-01-19 05:50:00,31.0,17.5,30.57,ENE,75,0.0,0.0,57,0.00,,,0.00,Wunderground v.1.15,2013-01-19 10:50:00,
2013-01-19 05:56:00,31.0,16.7,30.56,SSW,204,0.0,0.0,55,0.00,,,0.00,Wunderground v.1.15,2013-01-19 10:56:00,
2013-01-19 06:02:00,31.2,17.3,30.56,SW,221,1.0,2.0,56,0.00,,,0.00,Wunderground v.1.15,2013-01-19 11:02:00,
2013-01-19 06:08:00,31.1,17.6,30.56,WSW,252,1.0,2.0,57,0.00,,,0.00,Wunderground v.1.15,2013-01-19 11:08:00,
2013-01-19 07:48:00,31.1,13.7,30.56,SW,218,2.0,3.0,48,0.00,,,0.00,Wunderground v.1.15,2013-01-19 12:48:00,
2013-01-19 07:50:00,31.0,13.6,30.56,South,169,2.0,2.0,48,0.00,,,0.00,Wunderground v.1.15,2013-01-19 12:50:00,
2013-01-19 07:54:00,31.0,14.0,30.56,SW,230,2.0,2.0,49,0.00,,,0.00,Wunderground v.1.15,2013-01-19 12:54:00,
2013-01-19 07:56:00,30.9,14.4,30.56,South,176,2.0,3.0,50,0.00,,,0.00,Wunderground v.1.15,2013-01-19 12:56:00,
2013-01-19 08:02:00,30.4,16.1,30.56,SSW,211,2.0,3.0,55,0.00,,,0.00,Wunderground v.1.15,2013-01-19 13:02:00,
2013-01-19 08:08:00,30.5,15.8,30.56,SW,224,2.0,3.0,54,0.00,,,0.00,Wunderground v.1.15,2013-01-19 13:08:00,
2013-01-19 08:14:00,30.9,17.4,30.56,SW,214,2.0,2.0,57,0.00,,,0.00,Wunderground v.1.15,2013-01-19 13:14:00,
2013-01-19 08:20:00,31.2,18.1,30.56,SE,132,1.0,1.0,58,0.00,,,0.00,Wunderground v.1.15,2013-01-19 13:20:00,
2013-01-19 08:26:00,31.6,20.4,30.56,SE,130,1.0,1.0,63,0.00,,,0.00,Wunderground v.1.15,2013-01-19 13:26:00,
2013-01-19 08:32:00,32.0,20.4,30.56,SSW,198,1.0,2.0,62,0.00,,,0.00,Wunderground v.1.15,2013-01-19 13:32:00,
2013-01-19 08:38:00,32.6,20.2,30.56,ESE,122,2.0,3.0,60,0.00,,,0.00,Wunderground v.1.15,2013-01-19 13:38:00,
2013-01-19 08:44:00,32.9,20.5,30.56,South,184,2.0,2.0,60,0.00,,,0.00,Wunderground v.1.15,2013-01-19 13:44:00,
2013-01-19 08:50:00,33.3,21.3,30.56,SSW,207,2.0,5.0,61,0.00,,,0.00,Wunderground v.1.15,2013-01-19 13:50:00,
2013-01-19 08:56:00,33.5,22.2,30.56,SE,131,2.0,5.0,63,0.00,,,0.00,Wunderground v.1.15,2013-01-19 13:56:00,
2013-01-19 09:02:00,33.6,21.6,30.56,South,184,2.0,2.0,61,0.00,,,0.00,Wunderground v.1.15,2013-01-19 14:02:00,
2013-01-19 09:08:00,33.9,22.6,30.56,SW,222,2.0,4.0,63,0.00,,,0.00,Wunderground v.1.15,2013-01-19 14:08:00,
2013-01-19 09:14:00,34.4,21.5,30.56,South,188,2.0,2.0,59,0.00,,,0.00,Wunderground v.1.15,2013-01-19 14:14:00,
2013-01-19 09:20:00,35.1,22.2,30.56,SE,132,2.0,2.0,59,0.00,,,0.00,Wunderground v.1.15,2013-01-19 14:20:00,
2013-01-19 09:26:00,36.0,22.6,30.57,SSE,154,1.0,2.0,58,0.00,,,0.00,Wunderground v.1.15,2013-01-19 14:26:00,
2013-01-19 09:32:00,36.5,22.7,30.57,South,173,1.0,2.0,57,0.00,,,0.00,Wunderground v.1.15,2013-01-19 14:32:00,
2013-01-19 09:38:00,37.4,23.5,30.57,SSW,195,1.0,2.0,57,0.00,,,0.00,Wunderground v.1.15,2013-01-19 14:38:00,
2013-01-19 09:44:00,38.6,23.8,30.56,ESE,117,0.0,1.0,55,0.00,,,0.00,Wunderground v.1.15,2013-01-19 14:44:00,
2013-01-19 09:50:00,39.1,24.3,30.57,SE,144,1.0,1.0,55,0.00,,,0.00,Wunderground v.1.15,2013-01-19 14:50:00,
2013-01-19 09:56:00,39.6,24.3,30.57,South,179,1.0,3.0,54,0.00,,,0.00,Wunderground v.1.15,2013-01-19 14:56:00,
2013-01-19 10:02:00,40.1,24.3,30.57,SE,136,1.0,3.0,53,0.00,,,0.00,Wunderground v.1.15,2013-01-19 15:02:00,
2013-01-19 10:08:00,40.6,24.3,30.57,SSW,200,1.0,3.0,52,0.00,,,0.00,Wunderground v.1.15,2013-01-19 15:08:00,
2013-01-19 10:14:00,40.4,25.5,30.57,South,188,2.0,3.0,55,0.00,,,0.00,Wunderground v.1.15,2013-01-19 15:14:00,
2013-01-19 10:20:00,40.7,24.9,30.56,SSW,203,1.0,3.0,53,0.00,,,0.00,Wunderground v.1.15,2013-01-19 15:20:00,
2013-01-19 10:26:00,41.0,24.2,30.56,South,185,2.0,3.0,51,0.00,,,0.00,Wunderground v.1.15,2013-01-19 15:26:00,
2013-01-19 10:32:00,41.4,25.5,30.56,SE,138,1.0,2.0,53,0.00,,,0.00,Wunderground v.1.15,2013-01-19 15:32:00,
2013-01-19 10:38:00,41.3,22.1,30.56,ESE,114,1.0,2.0,46,0.00,,,0.01,Wunderground v.1.15,2013-01-19 15:38:00,
2013-01-19 10:44:00,41.9,24.6,30.56,SE,138,1.0,1.0,50,0.00,,,0.01,Wunderground v.1.15,2013-01-19 15:44:00,
2013-01-19 10:50:00,42.3,25.9,30.56,SW,235,1.0,2.0,52,0.00,,,0.01,Wunderground v.1.15,2013-01-19 15:50:00,
2013-01-19 10:56:00,42.7,26.3,30.55,SE,142,1.0,2.0,52,0.00,,,0.02,Wunderground v.1.15,2013-01-19 15:56:00,
2013-01-19 11:02:00,42.9,23.5,30.55,SSW,201,1.0,2.0,46,0.00,,,0.02,Wunderground v.1.15,2013-01-19 16:02:00,
2013-01-19 11:08:00,42.7,19.4,30.54,South,184,2.0,2.0,39,0.00,,,0.02,Wunderground v.1.15,2013-01-19 16:08:00,
2013-01-19 11:14:00,43.3,23.4,30.54,SSW,200,1.0,2.0,45,0.00,,,0.03,Wunderground v.1.15,2013-01-19 16:14:00,
2013-01-19 11:20:00,43.6,22.5,30.53,SE,135,1.0,1.0,43,0.00,,,0.03,Wunderground v.1.15,2013-01-19 16:20:00,
2013-01-19 11:26:00,43.6,22.0,30.53,SW,217,1.0,1.0,42,0.04,,,0.04,Wunderground v.1.15,2013-01-19 16:26:00,
2013-01-19 11:32:00,43.7,20.3,30.52,SE,124,1.0,2.0,39,0.04,,,0.04,Wunderground v.1.15,2013-01-19 16:32:00,
2013-01-19 11:38:00,43.9,26.0,30.52,South,176,1.0,4.0,49,0.04,,,0.04,Wunderground v.1.15,2013-01-19 16:38:00,
2013-01-19 11:44:00,44.3,23.2,30.51,SSE,156,1.0,2.0,43,0.04,,,0.05,Wunderground v.1.15,2013-01-19 16:44:00,
2013-01-19 11:50:00,45.0,24.4,30.51,SE,126,1.0,1.0,44,0.04,,,0.05,Wunderground v.1.15,2013-01-19 16:50:00,
2013-01-19 11:58:00,45.6,24.4,30.51,NE,47,1.0,2.0,43,0.05,,,0.06,Wunderground v.1.15,2013-01-19 16:58:00,
2013-01-19 12:04:00,45.9,21.1,30.50,SE,128,1.0,3.0,37,0.05,,,0.07,Wunderground v.1.15,2013-01-19 17:04:00,
2013-01-19 12:10:00,46.3,20.8,30.50,South,173,1.0,7.0,36,0.05,,,0.07,Wunderground v.1.15,2013-01-19 17:10:00,
2013-01-19 12:20:00,46.5,15.1,30.49,East,90,1.0,1.0,28,0.05,,,0.08,Wunderground v.1.15,2013-01-19 17:20:00,
2013-01-19 12:30:00,47.0,17.1,30.48,ESE,115,1.0,1.0,30,0.06,,,0.09,Wunderground v.1.15,2013-01-19 17:30:00,
2013-01-19 12:36:00,47.1,16.4,30.47,SE,137,1.0,3.0,29,0.06,,,0.09,Wunderground v.1.15,2013-01-19 17:36:00,
2013-01-19 12:44:00,46.6,12.6,30.46,SSW,203,3.0,7.0,25,0.06,,,0.10,Wunderground v.1.15,2013-01-19 17:44:00,
2013-01-19 12:50:00,47.0,17.1,30.46,SSE,159,2.0,2.0,30,0.05,,,0.11,Wunderground v.1.15,2013-01-19 17:50:00,
2013-01-19 12:58:00,47.3,22.9,30.45,South,190,2.0,3.0,38,0.05,,,0.11,Wunderground v.1.15,2013-01-19 17:58:00,
2013-01-19 13:04:00,47.3,21.0,30.45,SE,129,2.0,2.0,35,0.06,,,0.12,Wunderground v.1.15,2013-01-19 18:04:00,
2013-01-19 13:10:00,47.1,16.4,30.45,SW,215,2.0,2.0,29,0.05,,,0.12,Wunderground v.1.15,2013-01-19 18:10:00,
2013-01-19 13:16:00,47.0,12.9,30.44,SSW,198,3.0,5.0,25,0.04,,,0.13,Wunderground v.1.15,2013-01-19 18:16:00,
2013-01-19 13:22:00,47.7,17.7,30.44,NNW,329,1.0,2.0,30,0.04,,,0.13,Wunderground v.1.15,2013-01-19 18:22:00,
2013-01-19 13:28:00,48.0,15.6,30.43,ESE,122,1.0,3.0,27,0.04,,,0.14,Wunderground v.1.15,2013-01-19 18:28:00,
2013-01-19 13:34:00,47.4,11.4,30.43,SW,226,3.0,7.0,23,0.04,,,0.14,Wunderground v.1.15,2013-01-19 18:34:00,
2013-01-19 13:40:00,47.4,13.3,30.43,SSW,207,4.0,5.0,25,0.04,,,0.14,Wunderground v.1.15,2013-01-19 18:40:00,
2013-01-19 13:46:00,47.8,18.6,30.42,SSW,203,3.0,5.0,31,0.04,,,0.15,Wunderground v.1.15,2013-01-19 18:46:00,
2013-01-19 13:52:00,47.6,12.5,30.42,West,265,3.0,5.0,24,0.04,,,0.15,Wunderground v.1.15,2013-01-19 18:52:00,
2013-01-19 13:58:00,47.8,15.4,30.42,WSW,252,3.0,5.0,27,0.05,,,0.16,Wunderground v.1.15,2013-01-19 18:58:00,
2013-01-19 14:04:00,47.9,12.8,30.41,SSW,210,3.0,3.0,24,0.05,,,0.16,Wunderground v.1.15,2013-01-19 19:04:00,
2013-01-19 14:10:00,47.8,10.7,30.41,SE,145,3.0,3.0,22,0.05,,,0.16,Wunderground v.1.15,2013-01-19 19:10:00,
2013-01-19 14:20:00,48.1,14.8,30.40,South,186,2.0,2.0,26,0.00,,,0.16,Wunderground v.1.15,2013-01-19 19:20:00,
2013-01-19 14:28:00,48.0,11.9,30.40,SW,215,3.0,9.0,23,0.00,,,0.17,Wunderground v.1.15,2013-01-19 19:28:00,
2013-01-19 14:34:00,47.9,17.9,30.39,SSE,153,3.0,3.0,30,0.00,,,0.17,Wunderground v.1.15,2013-01-19 19:34:00,
2013-01-19 14:40:00,47.7,14.4,30.39,SSW,207,3.0,3.0,26,0.00,,,0.17,Wunderground v.1.15,2013-01-19 19:40:00,
2013-01-19 14:46:00,47.6,9.5,30.39,SW,218,3.0,6.0,21,0.00,,,0.17,Wunderground v.1.15,2013-01-19 19:46:00,
2013-01-19 14:52:00,47.4,14.2,30.39,SSW,209,3.0,5.0,26,0.00,,,0.17,Wunderground v.1.15,2013-01-19 19:52:00,
2013-01-19 14:58:00,47.5,14.3,30.38,SW,226,3.0,5.0,26,0.00,,,0.18,Wunderground v.1.15,2013-01-19 19:58:00,
2013-01-19 15:04:00,47.6,11.6,30.38,SW,235,3.0,3.0,23,0.00,,,0.18,Wunderground v.1.15,2013-01-19 20:04:00,
2013-01-19 15:10:00,47.5,15.1,30.38,SSW,210,3.0,5.0,27,0.04,,,0.19,Wunderground v.1.15,2013-01-19 20:10:00,
2013-01-19 15:20:00,47.0,12.0,30.38,South,188,3.0,3.0,24,0.04,,,0.19,Wunderground v.1.15,2013-01-19 20:20:00,
2013-01-19 15:26:00,47.1,9.1,30.38,SW,215,3.0,3.0,21,0.04,,,0.19,Wunderground v.1.15,2013-01-19 20:26:00,
2013-01-19 15:32:00,47.0,10.1,30.38,SW,224,3.0,6.0,22,0.00,,,0.19,Wunderground v.1.15,2013-01-19 20:32:00,
2013-01-19 15:38:00,46.2,11.3,30.37,SW,236,3.0,6.0,24,0.00,,,0.20,Wunderground v.1.15,2013-01-19 20:38:00,
2013-01-19 15:44:00,45.5,7.8,30.37,SSW,210,2.0,4.0,21,0.00,,,0.20,Wunderground v.1.15,2013-01-19 20:44:00,
2013-01-19 15:50:00,45.0,9.4,30.37,SW,233,3.0,3.0,23,0.00,,,0.20,Wunderground v.1.15,2013-01-19 20:50:00,
2013-01-19 16:00:00,44.5,9.9,30.37,SSW,203,3.0,3.0,24,0.00,,,0.20,Wunderground v.1.15,2013-01-19 21:00:00,
2013-01-19 16:10:00,44.1,8.6,30.36,WSW,240,3.0,4.0,23,0.00,,,0.20,Wunderground v.1.15,2013-01-19 21:10:00,
2013-01-19 16:16:00,43.7,11.0,30.36,SSW,204,3.0,7.0,26,0.00,,,0.20,Wunderground v.1.15,2013-01-19 21:16:00,
2013-01-19 16:22:00,44.0,11.3,30.36,SSW,207,3.0,3.0,26,0.00,,,0.20,Wunderground v.1.15,2013-01-19 21:22:00,
2013-01-19 16:28:00,44.0,8.5,30.36,SSW,203,2.0,3.0,23,0.00,,,0.20,Wunderground v.1.15,2013-01-19 21:28:00,
2013-01-19 16:34:00,43.9,8.4,30.36,SW,215,2.0,3.0,23,0.00,,,0.20,Wunderground v.1.15,2013-01-19 21:34:00,
2013-01-19 16:40:00,43.9,8.4,30.36,SW,217,1.0,2.0,23,0.00,,,0.20,Wunderground v.1.15,2013-01-19 21:40:00,
2013-01-19 16:52:00,43.6,9.1,30.36,SW,224,2.0,3.0,24,0.00,,,0.20,Wunderground v.1.15,2013-01-19 21:52:00,
2013-01-19 16:58:00,43.4,8.9,30.36,SW,219,2.0,3.0,24,0.00,,,0.20,Wunderground v.1.15,2013-01-19 21:58:00,
2013-01-19 17:06:00,43.2,8.8,30.36,SSW,211,2.0,3.0,24,0.00,,,0.20,Wunderground v.1.15,2013-01-19 22:06:00,
2013-01-19 17:12:00,43.2,8.8,30.36,SW,217,2.0,4.0,24,0.00,,,0.20,Wunderground v.1.15,2013-01-19 22:12:00,
2013-01-19 17:18:00,43.0,11.2,30.36,SW,233,2.0,4.0,27,0.00,,,0.20,Wunderground v.1.15,2013-01-19 22:18:00,
2013-01-19 17:24:00,42.8,11.9,30.36,SW,236,2.0,5.0,28,0.00,,,0.20,Wunderground v.1.15,2013-01-19 22:24:00,
2013-01-19 17:30:00,42.7,10.1,30.36,SW,227,2.0,2.0,26,0.00,,,0.20,Wunderground v.1.15,2013-01-19 22:30:00,
2013-01-19 17:36:00,42.5,9.1,30.36,SSW,207,2.0,3.0,25,0.00,,,0.20,Wunderground v.1.15,2013-01-19 22:36:00,
2013-01-19 17:48:00,42.5,8.2,30.35,SSW,200,2.0,2.0,24,0.00,,,0.20,Wunderground v.1.15,2013-01-19 22:48:00,
2013-01-19 17:54:00,42.3,9.8,30.35,South,176,2.0,5.0,26,0.00,,,0.20,Wunderground v.1.15,2013-01-19 22:54:00,
2013-01-19 18:02:00,41.8,11.0,30.35,SW,222,1.0,2.0,28,0.00,,,0.20,Wunderground v.1.15,2013-01-19 23:02:00,
2013-01-19 18:08:00,41.9,10.3,30.35,SSW,205,1.0,2.0,27,0.00,,,0.20,Wunderground v.1.15,2013-01-19 23:08:00,
2013-01-19 18:14:00,41.5,10.8,30.35,SW,223,1.0,1.0,28,0.00,,,0.20,Wunderground v.1.15,2013-01-19 23:14:00,
2013-01-19 18:20:00,41.6,11.6,30.36,SW,218,1.0,1.0,29,0.00,,,0.20,Wunderground v.1.15,2013-01-19 23:20:00,
2013-01-19 18:28:00,41.6,12.4,30.35,SW,236,1.0,1.0,30,0.00,,,0.20,Wunderground v.1.15,2013-01-19 23:28:00,
2013-01-19 18:34:00,41.6,11.6,30.35,SW,233,1.0,1.0,29,0.00,,,0.20,Wunderground v.1.15,2013-01-19 23:34:00,
2013-01-19 18:40:00,41.6,12.4,30.36,SW,235,2.0,2.0,30,0.00,,,0.20,Wunderground v.1.15,2013-01-19 23:40:00,
2013-01-19 18:50:00,41.7,12.5,30.36,SSW,212,3.0,4.0,30,0.00,,,0.20,Wunderground v.1.15,2013-01-19 23:50:00,
2013-01-19 19:00:00,41.3,12.9,30.36,SW,221,2.0,2.0,31,0.00,,,0.20,Wunderground v.1.15,2013-01-20 00:00:00,
2013-01-19 19:08:00,40.9,14.0,30.36,SW,236,2.0,2.0,33,0.00,,,0.20,Wunderground v.1.15,2013-01-20 00:08:00,
2013-01-19 19:14:00,40.9,13.3,30.36,SSE,158,2.0,3.0,32,0.00,,,0.20,Wunderground v.1.15,2013-01-20 00:14:00,
2013-01-19 19:20:00,40.9,14.6,30.35,SSW,201,2.0,2.0,34,0.00,,,0.20,Wunderground v.1.15,2013-01-20 00:20:00,
2013-01-19 19:26:00,40.3,16.7,30.35,SW,215,2.0,3.0,38,0.00,,,0.20,Wunderground v.1.15,2013-01-20 00:26:00,
2013-01-19 19:32:00,39.8,17.4,30.35,SSW,211,2.0,3.0,40,0.00,,,0.20,Wunderground v.1.15,2013-01-20 00:32:00,
2013-01-19 19:38:00,39.7,17.3,30.35,SSW,212,2.0,3.0,40,0.00,,,0.20,Wunderground v.1.15,2013-01-20 00:38:00,
2013-01-19 19:44:00,39.5,16.6,30.35,SSW,200,2.0,2.0,39,0.00,,,0.20,Wunderground v.1.15,2013-01-20 00:44:00,
2013-01-19 19:50:00,39.5,16.6,30.35,SSE,147,2.0,2.0,39,0.00,,,0.20,Wunderground v.1.15,2013-01-20 00:50:00,
2013-01-19 19:56:00,39.3,17.0,30.35,SSE,153,2.0,2.0,40,0.00,,,0.20,Wunderground v.1.15,2013-01-20 00:56:00,
2013-01-19 20:04:00,38.6,17.5,30.34,SSW,194,2.0,4.0,42,0.00,,,0.20,Wunderground v.1.15,2013-01-20 01:04:00,
2013-01-19 20:10:00,38.3,20.3,30.34,SW,229,2.0,2.0,48,0.00,,,0.20,Wunderground v.1.15,2013-01-20 01:10:00,
2013-01-19 20:16:00,38.1,18.6,30.34,SSW,210,2.0,6.0,45,0.00,,,0.20,Wunderground v.1.15,2013-01-20 01:16:00,
2013-01-19 20:22:00,38.0,18.0,30.34,East,91,2.0,3.0,44,0.00,,,0.20,Wunderground v.1.15,2013-01-20 01:22:00,
2013-01-19 20:28:00,37.6,18.2,30.34,West,259,1.0,3.0,45,0.00,,,0.20,Wunderground v.1.15,2013-01-20 01:28:00,
2013-01-19 20:36:00,37.7,17.7,30.34,SW,231,1.0,3.0,44,0.00,,,0.20,Wunderground v.1.15,2013-01-20 01:36:00,
2013-01-19 20:44:00,37.6,17.6,30.34,WSW,255,1.0,2.0,44,0.00,,,0.20,Wunderground v.1.15,2013-01-20 01:44:00,
2013-01-19 20:50:00,37.6,17.6,30.33,SW,235,2.0,3.0,44,0.00,,,0.20,Wunderground v.1.15,2013-01-20 01:50:00,
2013-01-19 20:58:00,37.2,17.3,30.33,SSE,153,2.0,3.0,44,0.00,,,0.20,Wunderground v.1.15,2013-01-20 01:58:00,
2013-01-19 21:08:00,37.5,16.5,30.33,SE,130,1.0,3.0,42,0.00,,,0.20,Wunderground v.1.15,2013-01-20 02:08:00,
2013-01-19 21:14:00,37.4,17.4,30.33,SW,231,1.0,2.0,44,0.00,,,0.20,Wunderground v.1.15,2013-01-20 02:14:00,
2013-01-19 21:20:00,37.2,16.7,30.33,SW,221,1.0,1.0,43,0.00,,,0.20,Wunderground v.1.15,2013-01-20 02:20:00,
2013-01-19 21:28:00,36.9,16.5,30.33,WSW,245,2.0,2.0,43,0.00,,,0.20,Wunderground v.1.15,2013-01-20 02:28:00,
2013-01-19 21:34:00,36.8,16.4,30.33,West,269,1.0,1.0,43,0.00,,,0.20,Wunderground v.1.15,2013-01-20 02:34:00,
2013-01-19 21:40:00,36.8,15.3,30.33,ESE,118,0.0,0.0,41,0.00,,,0.20,Wunderground v.1.15,2013-01-20 02:40:00,
2013-01-19 21:48:00,37.1,15.0,30.33,SW,229,1.0,2.0,40,0.00,,,0.20,Wunderground v.1.15,2013-01-20 02:48:00,
2013-01-19 21:54:00,37.2,15.1,30.33,SW,235,1.0,2.0,40,0.00,,,0.20,Wunderground v.1.15,2013-01-20 02:54:00,
2013-01-19 22:00:00,37.2,16.2,30.33,SW,221,1.0,1.0,42,0.00,,,0.20,Wunderground v.1.15,2013-01-20 03:00:00,
2013-01-19 22:08:00,36.7,15.7,30.33,ENE,72,1.0,1.0,42,0.00,,,0.20,Wunderground v.1.15,2013-01-20 03:08:00,
2013-01-19 22:14:00,37.0,14.9,30.33,NNE,32,1.0,1.0,40,0.00,,,0.20,Wunderground v.1.15,2013-01-20 03:14:00,
2013-01-19 22:20:00,37.1,15.0,30.33,SSW,201,1.0,1.0,40,0.00,,,0.20,Wunderground v.1.15,2013-01-20 03:20:00,
2013-01-19 22:26:00,37.1,15.0,30.32,SSW,201,1.0,2.0,40,0.00,,,0.20,Wunderground v.1.15,2013-01-20 03:26:00,
2013-01-19 22:32:00,36.8,14.7,30.32,SW,218,1.0,2.0,40,0.00,,,0.20,Wunderground v.1.15,2013-01-20 03:32:00,
2013-01-19 22:38:00,36.5,15.0,30.32,SE,124,1.0,2.0,41,0.00,,,0.20,Wunderground v.1.15,2013-01-20 03:38:00,
2013-01-19 22:44:00,36.4,14.9,30.31,SSW,210,1.0,1.0,41,0.00,,,0.20,Wunderground v.1.15,2013-01-20 03:44:00,
2013-01-19 22:50:00,36.3,14.8,30.31,ENE,78,0.0,0.0,41,0.00,,,0.20,Wunderground v.1.15,2013-01-20 03:50:00,
2013-01-19 22:56:00,36.3,14.8,30.31,SW,232,0.0,1.0,41,0.00,,,0.20,Wunderground v.1.15,2013-01-20 03:56:00,
2013-01-19 23:01:00,36.2,14.7,30.31,SW,231,0.0,0.0,41,0.00,,,0.20,Wunderground v.1.15,2013-01-20 04:01:00,
2013-01-19 23:08:00,36.3,14.3,30.31,SSW,210,0.0,1.0,40,0.00,,,0.20,Wunderground v.1.15,2013-01-20 04:08:00,
2013-01-19 23:16:00,36.3,13.7,30.31,SSE,162,1.0,1.0,39,0.00,,,0.20,Wunderground v.1.15,2013-01-20 04:16:00,
2013-01-19 23:21:00,36.3,13.7,30.30,SW,225,1.0,1.0,39,0.00,,,0.20,Wunderground v.1.15,2013-01-20 04:21:00,
2013-01-19 23:27:00,36.4,13.8,30.31,SW,225,0.0,1.0,39,0.00,,,0.20,Wunderground v.1.15,2013-01-20 04:27:00,
2013-01-19 23:34:00,36.5,13.3,30.30,SW,226,0.0,2.0,38,0.00,,,0.20,Wunderground v.1.15,2013-01-20 04:34:00,
2013-01-19 23:40:00,36.7,14.0,30.30,SW,218,1.0,1.0,39,0.00,,,0.20,Wunderground v.1.15,2013-01-20 04:40:00,
2013-01-19 23:46:00,36.7,12.8,30.30,SSW,211,0.0,1.0,37,0.00,,,0.20,Wunderground v.1.15,2013-01-20 04:46:00,
2013-01-19 23:52:00,36.8,12.9,30.30,WSW,240,0.0,0.0,37,0.00,,,0.20,Wunderground v.1.15,2013-01-20 04:52:00,
2013-01-19 23:58:00,36.9,12.4,30.30,WSW,240,0.0,1.0,36,0.00,,,0.20,Wunderground v.1.15,2013-01-20 04:58:00,